FW0688 Weather Reports


time (UTC)temp
C
wind
direction
speed
KPH
gust
KPH
rain 1hr
cm
rain 24hr
cm
rain mn
cm
humidity
%
barometer
mb
20190824152904 20 86 6.4 19.3 0.00 0.00 0.00 60 1026.7
20190824152404 19 68 6.4 17.7 0.00 0.00 0.00 60 1026.8
20190824151904 20 106 6.4 22.5 0.00 0.00 0.00 59 1026.8
20190824151404 19 85 4.8 22.5 0.00 0.00 0.00 61 1026.9
20190824150904 19 56 4.8 11.3 0.00 0.00 0.00 64 1026.9
20190824150404 19 76 3.2 16.1 0.00 0.00 0.00 64 1026.8
20190824145903 19 79 4.8 16.1 0.00 0.00 0.00 65 1026.8
20190824145403 19 54 3.2 11.3 0.00 0.00 0.00 67 1026.8
20190824144903 18 93 1.6 14.5 0.00 0.00 0.00 68 1026.8
20190824144403 18 24 1.6 14.5 0.00 0.00 0.00 68 1026.9
20190824143904 18 131 4.8 11.3 0.00 0.00 0.00 68 1027.1
20190824143407 18 117 3.2 9.7 0.00 0.00 0.00 71 1027.1
20190824142906 18 142 4.8 9.7 0.00 0.00 0.00 68 1027.2
20190824142403 17 69 3.2 8.0 0.00 0.00 0.00 69 1027.3
20190824141902 17 148 1.6 8.0 0.00 0.00 0.00 71 1027.2
20190824141402 17 73 3.2 9.7 0.00 0.00 0.00 71 1027.4
20190824140902 17 68 3.2 9.7 0.00 0.00 0.00 72 1027.6
20190824140402 17 90 3.2 8.0 0.00 0.00 0.00 74 1027.4
20190824135902 17 116 3.2 8.0 0.00 0.00 0.00 71 1027.4
20190824135404 17 94 3.2 8.0 0.00 0.00 0.00 72 1027.4
20190824134902 16 130 1.6 11.3 0.00 0.00 0.00 73 1027.6
20190824134402 16 86 1.6 11.3 0.00 0.00 0.00 74 1027.4
20190824133905 16 62 4.8 11.3 0.00 0.00 0.00 73 1027.3
20190824133402 15 82 3.2 9.7 0.00 0.00 0.00 76 1027.3
20190824132902 15 80 3.2 8.0 0.00 0.00 0.00 76 1027.3
20190824132401 15 71 3.2 9.7 0.00 0.00 0.00 79 1027.2
20190824131904 15 135 4.8 9.7 0.00 0.00 0.00 80 1027.3
20190824131401 15 92 3.2 8.0 0.00 0.00 0.00 80 1027.3
20190824130902 14 68 3.2 8.0 0.00 0.00 0.00 80 1027.3
20190824130401 14 138 0.0 8.0 0.00 0.00 0.00 81 1027.2
20190824125900 14 114 3.2 8.0 0.00 0.00 0.00 80 1027.1
20190824125402 14 140 1.6 4.8 0.00 0.00 0.00 81 1027.1
20190824124900 14 79 1.6 4.8 0.00 0.00 0.00 82 1027.2
20190824124401 13 120 1.6 4.8 0.00 0.00 0.00 83 1027.1
20190824123900 13 148 1.6 4.8 0.00 0.00 0.00 85 1026.9
20190824123400 13 121 0.0 4.8 0.00 0.00 0.00 87 1026.8
20190824122900 12 114 0.0 3.2 0.00 0.00 0.00 89 1026.7
20190824122401 12 87 0.0 4.8 0.00 0.00 0.00 91 1026.7
20190824121900 11 49 0.0 4.8 0.00 0.00 0.00 93 1026.5
20190824121401 11 125 0.0 3.2 0.00 0.00 0.00 97 1026.5
20190824120902 10 202 0.0 0.0 0.00 0.00 0.00 98 1026.4
20190824120400 10 262 0.0 0.0 0.00 0.00 0.00 98 1026.3
20190824115900 10 262 0.0 0.0 0.00 0.00 0.00 98 1026.4
20190824115400 9 262 0.0 0.0 0.00 0.00 0.00 98 1026.3
20190824114900 9 262 0.0 0.0 0.00 0.00 0.00 98 1026.0
20190824114401 8 262 0.0 0.0 0.00 0.00 0.00 98 1025.9
20190824113900 8 262 0.0 0.0 0.00 0.00 0.00 98 1025.9
20190824113359 8 262 0.0 0.0 0.00 0.00 0.00 97 1025.9
20190824112901 8 262 0.0 0.0 0.00 0.00 0.00 97 1025.9
20190824112359 8 262 0.0 1.6 0.00 0.00 0.00 97 1025.6
20190824111900 8 262 0.0 1.6 0.00 0.00 0.00 97 1025.5
20190824111400 8 262 0.0 1.6 0.00 0.00 0.00 97 1025.5
20190824110858 8 262 0.0 1.6 0.00 0.00 0.00 97 1025.4
20190824110359 8 262 0.0 1.6 0.00 0.00 0.00 97 1025.4
20190824105858 8 262 0.0 0.0 0.00 0.00 0.00 97 1025.3
20190824105359 8 262 0.0 0.0 0.00 0.00 0.00 97 1025.3
20190824104858 8 262 0.0 0.0 0.00 0.00 0.00 96 1025.3
20190824104358 8 262 0.0 1.6 0.00 0.00 0.00 97 1025.3
20190824103902 8 262 0.0 1.6 0.00 0.00 0.00 97 1025.4
20190824103358 8 262 0.0 1.6 0.00 0.00 0.00 96 1025.5
20190824102859 8 262 0.0 1.6 0.00 0.00 0.00 97 1025.4
20190824102357 8 262 0.0 1.6 0.00 0.00 0.00 97 1025.4
20190824101857 8 262 0.0 1.6 0.00 0.00 0.00 97 1025.6
20190824101400 8 262 0.0 1.6 0.00 0.00 0.00 97 1025.6
20190824100857 8 262 0.0 1.6 0.00 0.00 0.00 96 1025.6
20190824100358 8 262 0.0 1.6 0.00 0.00 0.00 97 1025.9
20190824095857 8 262 0.0 0.0 0.00 0.00 0.00 97 1025.9
20190824095359 8 262 0.0 1.6 0.00 0.00 0.00 97 1026.0
20190824094857 8 262 0.0 1.6 0.00 0.00 0.00 97 1026.0
20190824094358 8 262 0.0 1.6 0.00 0.00 0.00 96 1026.0
20190824093856 8 262 0.0 1.6 0.00 0.00 0.00 97 1026.0
20190824093358 8 262 0.0 0.0 0.00 0.00 0.00 97 1026.0
20190824092900 8 262 0.0 1.6 0.00 0.00 0.00 96 1026.0
20190824092357 8 262 0.0 1.6 0.00 0.00 0.00 97 1026.0
20190824091856 8 262 0.0 1.6 0.00 0.00 0.00 97 1025.9
20190824091356 8 262 0.0 1.6 0.00 0.00 0.00 96 1025.9
20190824090900 8 262 0.0 1.6 0.00 0.00 0.00 97 1025.8
20190824090356 8 262 0.0 1.6 0.00 0.00 0.00 97 1025.6
20190824085856 9 255 0.0 1.6 0.00 0.00 0.00 97 1025.8
20190824085358 8 257 0.0 1.6 0.00 0.00 0.00 96 1025.8
20190824084855 8 107 0.0 1.6 0.00 0.00 0.00 97 1025.8
20190824084355 8 107 0.0 0.0 0.00 0.00 0.00 96 1025.8
20190824083856 9 107 0.0 0.0 0.00 0.00 0.00 96 1025.8
20190824083356 9 107 0.0 0.0 0.00 0.00 0.00 96 1025.8
20190824082859 9 107 0.0 0.0 0.00 0.00 0.00 96 1025.8
20190824082355 9 107 0.0 0.0 0.00 0.00 0.00 96 1025.8
20190824081855 9 107 0.0 0.0 0.00 0.00 0.00 96 1025.8
20190824081356 9 107 0.0 0.0 0.00 0.00 0.00 96 1025.8
20190824080855 9 107 0.0 0.0 0.00 0.00 0.00 96 1025.9
20190824080355 9 107 0.0 0.0 0.00 0.00 0.00 96 1025.8
20190824075855 9 107 0.0 0.0 0.00 0.00 0.00 96 1026.0
20190824075355 9 107 0.0 0.0 0.00 0.00 0.00 96 1025.9
20190824074855 9 107 0.0 0.0 0.00 0.00 0.00 96 1025.9
20190824074356 9 107 0.0 0.0 0.00 0.00 0.00 96 1025.9
20190824073854 9 107 0.0 0.0 0.00 0.00 0.00 95 1026.0
20190824073354 9 107 0.0 0.0 0.00 0.00 0.00 96 1025.9
20190824072854 9 107 0.0 1.6 0.00 0.00 0.00 96 1026.0
20190824072356 10 107 0.0 1.6 0.00 0.00 0.00 95 1025.9
20190824071854 10 107 0.0 0.0 0.00 0.00 0.00 96 1026.0
20190824071355 10 107 0.0 1.6 0.00 0.00 0.00 95 1026.0
20190824070854 10 107 0.0 1.6 0.00 0.00 0.00 95 1026.2
20190824070355 10 107 0.0 0.0 0.00 0.00 0.00 94 1026.4
20190824065854 10 107 0.0 0.0 0.00 0.00 0.00 95 1026.4
20190824065354 10 107 0.0 0.0 0.00 0.00 0.00 95 1026.4
20190824064855 10 107 0.0 0.0 0.00 0.00 0.00 94 1026.4
20190824064353 10 107 0.0 0.0 0.00 0.00 0.00 93 1026.4
20190824063853 10 107 0.0 0.0 0.00 0.00 0.00 93 1026.5
20190824063354 11 107 0.0 0.0 0.00 0.00 0.00 92 1026.8
20190824062854 11 107 0.0 1.6 0.00 0.00 0.00 93 1026.7
20190824062354 11 107 0.0 3.2 0.00 0.00 0.00 93 1026.8
20190824061853 11 92 0.0 3.2 0.00 0.00 0.00 93 1026.8
20190824061354 11 135 0.0 3.2 0.00 0.00 0.00 94 1026.8
20190824060853 11 110 0.0 1.6 0.00 0.00 0.00 94 1026.9
20190824060353 11 110 0.0 1.6 0.00 0.00 0.00 93 1027.1
20190824055853 11 110 0.0 0.0 0.00 0.00 0.00 92 1027.1
20190824055352 11 110 0.0 1.6 0.00 0.00 0.00 93 1026.9
20190824054855 11 110 0.0 3.2 0.00 0.00 0.00 94 1027.1
20190824054352 11 90 0.0 3.2 0.00 0.00 0.00 94 1027.1
20190824053852 11 121 0.0 3.2 0.00 0.00 0.00 94 1027.1
20190824053352 11 102 0.0 3.2 0.00 0.00 0.00 94 1026.9
20190824052852 11 102 0.0 1.6 0.00 0.00 0.00 94 1026.9
20190824052352 11 102 0.0 3.2 0.00 0.00 0.00 93 1027.1
20190824051853 11 86 0.0 3.2 0.00 0.00 0.00 94 1027.1
20190824051351 11 92 0.0 1.6 0.00 0.00 0.00 93 1027.1
20190824050852 11 142 0.0 1.6 0.00 0.00 0.00 94 1027.2
20190824050351 11 164 0.0 1.6 0.00 0.00 0.00 94 1027.3
20190824045852 11 196 0.0 1.6 0.00 0.00 0.00 94 1027.3
20190824045352 11 141 0.0 3.2 0.00 0.00 0.00 94 1027.3
20190824044851 11 193 0.0 3.2 0.00 0.00 0.00 94 1027.3
20190824044352 11 157 0.0 1.6 0.00 0.00 0.00 94 1027.4
20190824043851 11 138 0.0 3.2 0.00 0.00 0.00 94 1027.4
20190824043351 11 111 0.0 3.2 0.00 0.00 0.00 93 1027.6
20190824042850 11 125 0.0 4.8 0.00 0.00 0.00 93 1027.7
20190824042350 11 82 1.6 4.8 0.00 0.00 0.00 94 1027.7
20190824041850 11 78 1.6 4.8 0.00 0.00 0.00 94 1027.6
20190824041351 11 113 0.0 3.2 0.00 0.00 0.00 94 1027.7
20190824040851 11 93 1.6 4.8 0.00 0.00 0.00 94 1027.7
20190824040350 11 135 0.0 1.6 0.00 0.00 0.00 93 1027.6
20190824035851 11 155 0.0 3.2 0.00 0.00 0.00 93 1027.6
20190824035353 11 120 1.6 4.8 0.00 0.00 0.00 93 1027.4
20190824034850 11 123 0.0 4.8 0.00 0.00 0.00 93 1027.4
20190824034349 11 90 1.6 4.8 0.00 0.00 0.00 93 1027.3
20190824033849 11 87 1.6 4.8 0.00 0.00 0.00 94 1027.4
20190824033350 11 179 0.0 1.6 0.00 0.00 0.00 94 1027.4
20190824032853 11 133 0.0 1.6 0.00 0.00 0.00 93 1027.4
20190824032349 11 133 0.0 1.6 0.00 0.00 0.00 93 1027.3
20190824031850 11 102 0.0 1.6 0.00 0.00 0.00 93 1027.3
20190824031350 11 217 0.0 1.6 0.00 0.00 0.00 93 1027.3
20190824030850 12 234 0.0 4.8 0.00 0.00 0.00 93 1027.4
20190824030349 12 164 0.0 4.8 0.00 0.00 0.00 93 1027.4
20190824025851 12 240 0.0 3.2 0.00 0.00 0.00 93 1027.3
20190824025348 12 118 1.6 4.8 0.00 0.00 0.00 93 1027.2
20190824024851 12 162 0.0 4.8 0.00 0.00 0.00 93 1027.2
20190824024349 12 228 0.0 1.6 0.00 0.00 0.00 93 1027.1
20190824023848 12 117 0.0 0.0 0.00 0.00 0.00 92 1026.9
20190824023348 12 117 0.0 1.6 0.00 0.00 0.00 92 1026.9
20190824022848 12 117 0.0 1.6 0.00 0.00 0.00 93 1026.9
20190824022349 12 148 0.0 1.6 0.00 0.00 0.00 93 1027.1
20190824021847 12 264 0.0 0.0 0.00 0.00 0.00 93 1027.2
20190824021350 12 262 0.0 1.6 0.00 0.00 0.00 93 1027.2
20190824020847 12 264 0.0 1.6 0.00 0.00 0.00 93 1027.2
20190824020347 12 247 0.0 1.6 0.00 0.00 0.00 94 1027.1
20190824015851 12 140 0.0 0.0 0.00 0.00 0.00 94 1026.9
20190824015348 12 140 0.0 1.6 0.00 0.00 0.00 94 1026.9
20190824014847 12 140 0.0 1.6 0.00 0.00 0.00 94 1026.8
20190824014347 12 123 0.0 1.6 0.00 0.00 0.00 94 1026.8
20190824013847 12 123 0.0 1.6 0.00 0.00 0.00 94 1026.7
20190824013349 12 137 0.0 1.6 0.00 0.00 0.00 94 1026.5
20190824012849 12 113 0.0 1.6 0.00 0.00 0.00 94 1026.4
20190824012347 12 113 0.0 0.0 0.00 0.00 0.00 93 1026.4
20190824011846 12 113 0.0 1.6 0.00 0.00 0.00 93 1026.3
20190824011347 13 113 0.0 4.8 0.00 0.00 0.00 93 1026.2
20190824010847 13 113 0.0 4.8 0.00 0.00 0.00 93 1026.0
20190824010347 13 106 0.0 3.2 0.00 0.00 0.00 92 1025.9
20190824005848 13 97 0.0 6.4 0.00 0.00 0.00 92 1025.8
20190824005346 13 85 1.6 6.4 0.00 0.00 0.00 92 1025.8
20190824004848 13 125 1.6 4.8 0.00 0.00 0.00 92 1025.6
20190824004349 13 103 1.6 9.7 0.00 0.00 0.00 92 1025.6
20190824003847 13 96 0.0 9.7 0.00 0.00 0.00 92 1025.8
20190824003346 13 97 1.6 8.0 0.00 0.00 0.00 92 1025.9
20190824002845 13 89 0.0 6.4 0.00 0.00 0.00 91 1025.9
20190824002348 13 76 0.0 6.4 0.00 0.00 0.00 91 1025.9
20190824001846 13 130 0.0 4.8 0.00 0.00 0.00 91 1026.0
20190824001347 13 97 1.6 4.8 0.00 0.00 0.00 91 1026.0
20190824000845 13 124 0.0 6.4 0.00 0.00 0.00 90 1025.8
20190824000346 13 130 1.6 6.4 0.00 0.00 0.00 90 1025.8
20190823235848 14 82 0.0 6.4 0.00 0.00 0.00 90 1025.6
20190823235346 14 103 0.0 3.2 0.00 0.00 0.00 90 1025.6
20190823234848 14 83 0.0 3.2 0.00 0.00 0.00 89 1025.6
20190823234345 14 100 0.0 3.2 0.00 0.00 0.00 89 1025.5
20190823233845 14 102 1.6 6.4 0.00 0.00 0.00 89 1025.3
20190823233345 14 104 1.6 6.4 0.00 0.00 0.00 89 1025.3
20190823232844 14 93 1.6 14.5 0.00 0.00 0.00 89 1025.3
20190823232345 15 111 1.6 14.5 0.00 0.00 0.00 89 1025.4
20190823231844 15 96 1.6 9.7 0.00 0.00 0.00 88 1025.3
20190823231347 15 92 1.6 9.7 0.00 0.00 0.00 87 1025.1
20190823230846 15 137 1.6 8.0 0.00 0.00 0.00 86 1025.0
20190823230345 15 121 1.6 19.3 0.00 0.00 0.00 85 1024.7
20190823225844 15 69 3.2 19.3 0.00 0.00 0.00 84 1024.5
20190823225344 15 75 3.2 11.3 0.00 0.00 0.00 84 1024.4
20190823224844 16 123 1.6 11.3 0.00 0.00 0.00 83 1024.4
20190823224346 16 79 3.2 8.0 0.00 0.00 0.00 82 1024.2
20190823223843 16 87 1.6 8.0 0.00 0.00 0.00 82 1024.4
20190823223344 16 92 3.2 8.0 0.00 0.00 0.00 81 1024.2
20190823222844 16 83 1.6 14.5 0.00 0.00 0.00 79 1024.1
20190823222342 17 69 3.2 14.5 0.00 0.00 0.00 77 1024.2
20190823221843 17 54 3.2 11.3 0.00 0.00 0.00 76 1024.4
20190823221345 17 114 1.6 11.3 0.00 0.00 0.00 75 1024.4
20190823220844 17 124 1.6 6.4 0.00 0.00 0.00 73 1024.1
20190823220343 17 97 0.0 6.4 0.00 0.00 0.00 71 1024.1
20190823215843 17 140 1.6 8.0 0.00 0.00 0.00 70 1024.1
20190823215342 17 116 3.2 8.0 0.00 0.00 0.00 69 1024.0
20190823214842 18 120 0.0 8.0 0.00 0.00 0.00 70 1024.0
20190823214342 18 99 1.6 8.0 0.00 0.00 0.00 68 1024.0
20190823213845 18 78 0.0 6.4 0.00 0.00 0.00 68 1023.9
20190823213342 18 103 0.0 11.3 0.00 0.00 0.00 68 1023.9
20190823212845 18 125 1.6 11.3 0.00 0.00 0.00 67 1023.7
20190823212342 18 172 0.0 9.7 0.00 0.00 0.00 66 1023.7
20190823211841 18 100 1.6 9.7 0.00 0.00 0.00 66 1023.7
20190823211342 18 142 0.0 8.0 0.00 0.00 0.00 67 1023.9
20190823210842 18 62 3.2 11.3 0.00 0.00 0.00 65 1023.9
20190823210341 18 151 1.6 11.3 0.00 0.00 0.00 64 1023.7
20190823205842 19 89 1.6 6.4 0.00 0.00 0.00 63 1023.9
20190823205341 19 96 3.2 6.4 0.00 0.00 0.00 62 1023.9
20190823204841 20 120 1.6 8.0 0.00 0.00 0.00 63 1024.0
20190823204341 20 89 1.6 9.7 0.00 0.00 0.00 62 1024.0
20190823203843 20 76 1.6 9.7 0.00 0.00 0.00 60 1024.0
20190823203341 20 102 1.6 9.7 0.00 0.00 0.00 60 1024.0
20190823202844 21 125 0.0 9.7 0.00 0.00 0.00 58 1024.1
20190823202341 21 243 0.0 4.8 0.00 0.00 0.00 57 1024.0
20190823201842 21 250 0.0 11.3 0.00 0.00 0.00 55 1024.0
20190823201344 22 90 4.8 11.3 0.00 0.00 0.00 53 1024.1
20190823200840 21 133 0.0 9.7 0.00 0.00 0.00 51 1023.9
20190823200340 22 130 6.4 9.7 0.00 0.00 0.00 51 1024.0
20190823195842 22 141 3.2 14.5 0.00 0.00 0.00 53 1024.0
20190823195341 21 142 4.8 19.3 0.00 0.00 0.00 54 1024.0
20190823194843 21 82 4.8 19.3 0.00 0.00 0.00 54 1024.0
20190823194340 21 69 1.6 11.3 0.00 0.00 0.00 53 1024.0
20190823193840 22 111 3.2 11.3 0.00 0.00 0.00 51 1024.1
20190823193339 21 128 1.6 8.0 0.00 0.00 0.00 58 1024.2
20190823192839 21 72 0.0 11.3 0.00 0.00 0.00 61 1024.2
20190823192342 21 68 1.6 11.3 0.00 0.00 0.00 55 1024.4
20190823191840 22 142 4.8 11.3 0.00 0.00 0.00 53 1024.4
20190823191340 22 130 4.8 11.3 0.00 0.00 0.00 53 1024.6
20190823190840 22 140 3.2 11.3 0.00 0.00 0.00 53 1024.6
20190823190339 21 76 6.4 17.7 0.00 0.00 0.00 52 1024.6
20190823185840 21 75 4.8 17.7 0.00 0.00 0.00 54 1024.7
20190823185339 21 130 4.8 20.9 0.00 0.00 0.00 54 1024.9
20190823184841 21 94 6.4 20.9 0.00 0.00 0.00 56 1024.9
20190823184338 21 61 6.4 19.3 0.00 0.00 0.00 52 1024.9
20190823183839 21 85 4.8 16.1 0.00 0.00 0.00 55 1024.9
20190823183341 21 97 4.8 17.7 0.00 0.00 0.00 56 1025.0
20190823182838 20 111 6.4 17.7 0.00 0.00 0.00 58 1025.1
20190823182341 20 99 4.8 11.3 0.00 0.00 0.00 58 1025.3
20190823181838 20 62 4.8 14.5 0.00 0.00 0.00 58 1025.4
20190823181338 20 157 8.0 17.7 0.00 0.00 0.00 58 1025.3
20190823180837 20 66 6.4 17.7 0.00 0.00 0.00 61 1025.4
20190823180339 20 51 6.4 17.7 0.00 0.00 0.00 58 1025.5
20190823175838 20 56 6.4 17.7 0.00 0.00 0.00 59 1025.6
20190823175338 20 109 6.4 17.7 0.00 0.00 0.00 66 1025.8
20190823174842 20 92 3.2 16.1 0.00 0.00 0.00 66 1025.9
20190823174339 19 45 3.2 16.1 0.00 0.00 0.00 71 1025.9
20190823173838 19 120 4.8 11.3 0.00 0.00 0.00 71 1026.0
20190823173337 18 56 4.8 16.1 0.00 0.00 0.00 71 1026.2
20190823172838 18 133 6.4 16.1 0.00 0.00 0.00 70 1026.4
20190823172337 18 120 3.2 9.7 0.00 0.00 0.00 74 1026.7
20190823171836 18 76 3.2 9.7 0.00 0.00 0.00 74 1026.8
20190823171336 17 138 3.2 17.7 0.00 0.00 0.00 75 1027.1
20190823170837 17 61 6.4 17.7 0.00 0.00 0.00 74 1027.2
20190823170337 17 130 1.6 11.3 0.00 0.00 0.00 74 1027.2
20190823165837 17 161 1.6 9.7 0.00 0.00 0.00 75 1027.3
20190823165339 17 102 3.2 9.7 0.00 0.00 0.00 73 1027.6
20190823164836 17 135 3.2 11.3 0.00 0.00 0.00 73 1027.6
20190823164339 17 89 3.2 11.3 0.00 0.00 0.00 78 1027.7
20190823163837 16 92 1.6 17.7 0.00 0.00 0.00 77 1027.9
20190823163336 16 103 1.6 17.7 0.00 0.00 0.00 79 1027.9
20190823162836 16 85 1.6 9.7 0.00 0.00 0.00 80 1028.1
20190823162336 16 164 1.6 6.4 0.00 0.00 0.00 81 1028.3
20190823161837 16 141 0.0 9.7 0.00 0.00 0.00 80 1028.3
20190823161337 16 55 3.2 9.7 0.00 0.00 0.00 79 1028.5
20190823160837 16 96 1.6 6.4 0.00 0.00 0.00 81 1028.6
20190823160336 16 73 0.0 6.4 0.00 0.00 0.00 80 1028.5
20190823155838 16 28 1.6 8.0 0.00 0.00 0.00 80 1028.5
20190823155335 16 103 3.2 8.0 0.00 0.00 0.00 83 1028.5
20190823154835 15 73 1.6 8.0 0.00 0.00 0.00 83 1028.5
20190823154338 15 144 3.2 8.0 0.00 0.00 0.00 85 1028.5
20190823153835 15 66 1.6 6.4 0.00 0.00 0.00 84 1028.5
20190823153336 15 89 1.6 6.4 0.00 0.00 0.00 84 1028.3